Home   Weather   Dordrecht   Past weeks

Flag for Netherlands Past Weather in Dordrecht, Netherlands — Yesterday and Last 2 Weeks

Now
45 °F

Quite cool.


Feels Like: 41 °F
Forecast: 36 / 55 °F
Wind: 6 mph from Northwest

Location: Rotterdam Zestienhoven Airport

Current Time: Apr 28, 2017 at 10:00:01 pm

Latest Report: Apr 28, 2017 at 8:55 pm


Visibility: N/A

Pressure: 30.01 "Hg

Humidity: 76%

Dew Point: 37 °F

Location of DordrechtLocation

Past Weather in Dordrecht — Graph

°F

Dordrecht Temperature Yesterday

Maximum temperature yesterday: 50 °F (at 12:55 pm)
Minimum temperature yesterday: 34 °F (at 4:55 am)
Average temperature yesterday: 43 °F

High & Low Weather Summary for the Past Weeks

 TemperatureHumidityPressure
High55 °F (Apr 21, 10:55 am)100% (Apr 20, 12:55 am)30.63 "Hg (Apr 20, 12:55 am)
Low28 °F (Apr 20, 4:55 am)43% (Apr 20, 12:55 pm)29.71 "Hg (Apr 25, 2:25 am)
Average46 °F75%30.17 "Hg
* Reported Apr 19 8:55 am — Apr 28 7:55 pm, Dordrecht, Weather by CustomWeather, © 2017

Note: Actual official high and low records may vary slightly from our data, if they occured in-between our weather recording intervals... More about our weather records

Advertising

Dordrecht Weather History for the Previous 24 Hours

Scroll right to see more
 ConditionsComfort  
Time TempWeatherWind HumidityBarometerVisibility
7:55 pm
Fri, Apr 28
48 °FBroken clouds.7 mph66%30.01 "HgN/A
7:25 pm50 °FCool.10 mph58%30.01 "HgN/A
6:55 pm48 °FScattered clouds.8 mph66%30.01 "HgN/A
6:25 pm50 °FScattered clouds.13 mph67%29.98 "HgN/A
5:55 pm50 °FPartly sunny.12 mph67%29.98 "HgN/A
5:25 pm52 °FBroken clouds.12 mph58%29.98 "HgN/A
4:55 pm52 °FBroken clouds.10 mph62%29.98 "HgN/A
4:25 pm52 °FPartly sunny.10 mph62%29.98 "HgN/A
3:55 pm52 °FBroken clouds.12 mph67%29.98 "HgN/A
3:25 pm52 °FPartly sunny.10 mph62%29.98 "HgN/A
2:55 pm52 °FPassing clouds.10 mph62%29.95 "HgN/A
1:55 pm50 °FPassing clouds.12 mph67%29.95 "HgN/A
1:25 pm52 °FScattered clouds.10 mph67%29.95 "HgN/A
12:55 pm52 °FBroken clouds.9 mph67%29.95 "HgN/A
12:25 pm50 °FScattered clouds.10 mph67%29.95 "HgN/A
11:55 am50 °FPassing clouds.9 mph67%29.95 "HgN/A
11:25 am48 °FLight rain. Partly sunny.8 mph76%29.95 "HgN/A
10:55 am50 °FScattered clouds.8 mph71%29.95 "HgN/A
10:25 am48 °FScattered clouds.9 mph71%29.92 "HgN/A
9:55 am46 °FBroken clouds.6 mph87%29.92 "HgN/A
9:25 am46 °FDrizzle. Mostly cloudy.3 mph87%29.92 "HgN/A
8:55 am48 °FMostly cloudy.3 mph82%29.92 "HgN/A
8:25 am46 °FBroken clouds.2 mph87%29.92 "HgN/A
7:55 am45 °FDrizzle. Broken clouds.5 mph93%29.92 "HgN/A
7:25 am43 °FBroken clouds.3 mph93%29.92 "HgN/A
6:55 am43 °FPartly sunny.5 mph93%29.92 "HgN/A
6:25 am43 °FPassing clouds.3 mph100%29.92 "HgN/A
5:55 am45 °FMostly cloudy.3 mph93%29.92 "HgN/A
5:25 am45 °FLight rain. Mostly cloudy.2 mph93%29.92 "HgN/A
4:55 am45 °FPassing clouds.5 mph93%29.92 "HgN/A
4:25 am43 °FDrizzle. Mostly cloudy.3 mph100%29.92 "HgN/A
3:55 am43 °FMostly cloudy.2 mph93%29.92 "HgN/A
3:25 am43 °FDrizzle. Mostly cloudy.2 mph100%29.92 "HgN/A
2:55 am43 °FRain. Mostly cloudy.6 mph93%29.95 "Hg4 mi
2:25 am45 °FLight rain. Partly cloudy.7 mph93%29.95 "HgN/A
1:55 am45 °FMostly cloudy.6 mph93%29.95 "HgN/A
1:25 am45 °FMostly cloudy.6 mph93%29.95 "HgN/A
12:55 am45 °FPassing clouds.8 mph93%29.95 "Hg4 mi
12:25 am45 °FMostly cloudy.7 mph87%29.95 "HgN/A
11:55 pm
Thu, Apr 27
45 °FMostly cloudy.7 mph81%29.98 "HgN/A
11:25 pm45 °FPassing clouds.8 mph76%29.98 "HgN/A
10:55 pm45 °FClear.7 mph76%29.98 "HgN/A
10:25 pm45 °FPassing clouds.7 mph71%29.98 "HgN/A
Weather by CustomWeather, © 2017

See weather overviewHow to use our weather pages